Louisville, KY

8:57 AM EST on December 07, 2016 (GMT -0500)
Bowman

Weather History for KLOU - January, 2010

Change the Weather History Date:

Tuesday, January 26, 2010

  Actual Average Record
Temperature  
Mean Temperature 29 °F 35 °F  
Max Temperature 35 °F 43 °F 72 °F (1950)
Min Temperature 23 °F 27 °F 1 °F (1978)
Degree Days  
Heating Degree Days 36 30  
Month to date heating degree days 874 798  
Since 1 July heating degree days 2513 2462  
Cooling Degree Days 0 0  
Month to date cooling degree days 0 0  
Year to date cooling degree days 0 0  
Moisture  
Dew Point 22 °F    
Average Humidity 78    
Maximum Humidity 92    
Minimum Humidity 63    
Precipitation  
Precipitation 0.01 in 0.09 in 1.49 in (2012)
Month to date precipitation 2.72 2.87  
Year to date precipitation 2.72 2.87  
Sea Level Pressure  
Sea Level Pressure 29.92 in    
Wind  
Wind Speed 11 mph (West)    
Max Wind Speed 18 mph    
Max Gust Speed 29 mph    
Visibility 7 miles    
Events Snow    
T = Trace of Precipitation, MM = Missing Value Source: NWS Daily Summary

Daily Weather History Graph

Daily Weather History Graph

Search for Another Location

Airport or City:

Trip Planner

Search our weather history database for the weather conditions in past years. The results will help you decide how hot, cold, wet, or windy it might be!

Date:

Astronomy

Jan. 26, 2010 Rise Set
Actual Time 7:52 AM EST 5:58 PM EST
Civil Twilight 7:24 AM EST 6:26 PM EST
Nautical Twilight 6:52 AM EST 6:58 PM EST
Astronomical Twilight 6:20 AM EST 7:30 PM EST
Moon 2:00 PM EST (1/26) 4:33 AM EST (1/26)
Length of Visible Light 11h 02m
Length of Day
10h 06m
Waxing Gibbous, 83% of the Moon is Illuminated
Jan 26
Waxing Gibbous
Jan 30
Full
Feb 5
Last Quarter
Feb 13
New
Feb 21
First Quarter

Hourly Weather History & Observations

Time (EST) Temp. Windchill Dew Point Humidity Pressure Visibility Wind Dir Wind Speed Gust Speed Precip Events Conditions
12:15 AM 35.6 °F 28.6 °F 26.6 °F 70% 29.73 in 10.0 mi WSW 9.2 mph 18.4 mph N/A   Overcast
12:53 AM 35.1 °F 27.9 °F 26.1 °F 70% 29.73 in 10.0 mi West 9.2 mph - N/A   Overcast
1:00 AM 35.6 °F 27.5 °F 26.6 °F 70% 29.72 in 10.0 mi WSW 11.5 mph - N/A   Overcast
1:53 AM 34.0 °F 23.0 °F 24.1 °F 67% 29.75 in 10.0 mi WSW 18.4 mph 28.8 mph 0.00 in   Overcast
2:53 AM 33.1 °F 24.9 °F 24.1 °F 70% 29.75 in 9.0 mi West 10.4 mph - 0.00 in   Overcast
3:53 AM 33.1 °F 23.4 °F 24.1 °F 70% 29.75 in 10.0 mi West 13.8 mph 19.6 mph N/A   Overcast
4:32 AM 32.0 °F 23.0 °F 26.6 °F 80% 29.74 in 2.5 mi West 11.5 mph - 0.00 in Snow Light Snow
4:44 AM 30.2 °F 22.6 °F 26.6 °F 86% 29.75 in 1.8 mi West 8.1 mph - 0.00 in Snow Light Snow
4:53 AM 30.9 °F 23.5 °F 28.0 °F 89% 29.76 in 1.8 mi West 8.1 mph - 0.00 in Snow Light Snow
5:03 AM 30.2 °F 23.4 °F 28.4 °F 93% 29.76 in 1.2 mi West 6.9 mph - 0.00 in Snow Light Snow
5:29 AM 30.2 °F 21.9 °F 28.4 °F 93% 29.76 in 1.0 mi West 9.2 mph - 0.00 in Snow Light Snow
5:53 AM 30.0 °F 21.1 °F 28.0 °F 92% 29.79 in 1.2 mi WNW 10.4 mph - 0.01 in Snow Light Snow
6:16 AM 28.4 °F 17.5 °F 28.4 °F 100% 29.79 in 1.0 mi WNW 13.8 mph - 0.00 in Snow Light Snow
6:26 AM 28.4 °F 18.5 °F 26.6 °F 93% 29.80 in 1.0 mi West 11.5 mph - 0.00 in Snow Light Snow
6:33 AM 28.4 °F 17.0 °F 26.6 °F 93% 29.81 in 2.0 mi WNW 15.0 mph - 0.00 in Snow Light Snow
6:38 AM 28.4 °F 18.5 °F 26.6 °F 93% 29.81 in 1.8 mi West 11.5 mph - 0.00 in Snow Light Snow
6:53 AM 28.0 °F 17.5 °F 26.1 °F 92% 29.83 in 1.8 mi West 12.7 mph - 0.00 in Snow Light Snow
7:00 AM 28.4 °F 17.5 °F 26.6 °F 93% 29.83 in 2.5 mi West 13.8 mph - 0.00 in Snow Light Snow
7:10 AM 28.4 °F 19.7 °F 26.6 °F 93% 29.84 in 2.5 mi WNW 9.2 mph - 0.00 in Snow Light Snow
7:22 AM 28.4 °F 18.0 °F 24.8 °F 86% 29.85 in 3.0 mi WNW 12.7 mph - 0.00 in Snow Light Snow
7:32 AM 28.4 °F 17.0 °F 21.2 °F 74% 29.85 in 6.0 mi WNW 15.0 mph 23.0 mph 0.00 in Snow Light Snow
7:49 AM 26.6 °F 14.3 °F 21.2 °F 80% 29.87 in 8.0 mi West 16.1 mph - 0.00 in   Overcast
7:53 AM 27.0 °F 15.2 °F 21.0 °F 78% 29.88 in 8.0 mi WNW 15.0 mph - 0.00 in   Overcast
8:53 AM 27.0 °F 17.3 °F 18.0 °F 69% 29.92 in 10.0 mi WNW 10.4 mph - N/A   Overcast
9:53 AM 27.0 °F 16.1 °F 18.0 °F 69% 29.96 in 10.0 mi WNW 12.7 mph - N/A   Overcast
10:05 AM 26.6 °F 16.2 °F 19.4 °F 74% 29.95 in 10.0 mi West 11.5 mph - N/A   Overcast
10:26 AM 26.6 °F 16.2 °F 17.6 °F 69% 29.96 in 10.0 mi WNW 11.5 mph - N/A   Overcast
10:53 AM 27.0 °F 15.2 °F 18.0 °F 69% 29.98 in 10.0 mi West 15.0 mph 23.0 mph N/A   Overcast
11:11 AM 26.6 °F 14.7 °F 17.6 °F 69% 29.98 in 10.0 mi West 15.0 mph 24.2 mph N/A   Overcast
11:53 AM 27.0 °F 15.2 °F 16.0 °F 63% 30.01 in 10.0 mi West 15.0 mph 20.7 mph N/A   Overcast
12:53 PM 27.0 °F 14.7 °F 16.0 °F 63% 30.03 in 10.0 mi West 16.1 mph 23.0 mph N/A   Overcast
1:53 PM 27.0 °F 15.2 °F 16.0 °F 63% 30.03 in 10.0 mi WNW 15.0 mph - N/A   Overcast
2:53 PM 27.0 °F 16.1 °F 17.1 °F 66% 30.06 in 10.0 mi West 12.7 mph - N/A   Overcast
3:53 PM 27.0 °F 15.2 °F 18.0 °F 69% 30.09 in 10.0 mi WSW 15.0 mph - N/A   Overcast
4:53 PM 27.0 °F 17.3 °F 17.1 °F 66% 30.12 in 10.0 mi West 10.4 mph - N/A   Overcast
5:53 PM 27.0 °F 16.1 °F 17.1 °F 66% 30.15 in 10.0 mi WSW 12.7 mph 19.6 mph N/A   Overcast
6:53 PM 26.1 °F 16.2 °F 15.1 °F 63% 30.18 in 10.0 mi WSW 10.4 mph 20.7 mph N/A   Overcast
7:53 PM 25.0 °F 17.1 °F 16.0 °F 69% 30.21 in 10.0 mi WSW 6.9 mph - N/A   Partly Cloudy
8:53 PM 25.0 °F 19.3 °F 17.1 °F 72% 30.22 in 10.0 mi WSW 4.6 mph - N/A   Clear
9:53 PM 24.1 °F 18.2 °F 18.0 °F 77% 30.23 in 10.0 mi WSW 4.6 mph - N/A   Clear
10:53 PM 24.1 °F 16.0 °F 17.1 °F 75% 30.23 in 10.0 mi WSW 6.9 mph - N/A   Clear
11:53 PM 23.0 °F 17.0 °F 16.0 °F 74% 30.25 in 10.0 mi SW 4.6 mph - N/A   Partly Cloudy